User: anonymous
Location: Oshawa
(43.9000°N, 78.8670°W)
Time: 05:35:14
(UTC-04:00)
Language:

Cosmos 1707 Rocket - Orbit

View from above orbital plane
View from above orbital plane
View from above satellite
View from above satellite

Ground track
Ground track

The orbit data is extracted from the following two-line orbital elements,

1 16327U 85113B   14106.09126934  .00000449  00000-0  52538-4 0  3171
2 16327 082.5332 094.6659 0019006 201.5983 226.8179 14.82744466530220
Epoch (UTC): 16 April 2014 02:11:25
Eccentricity: 0.0019006
inclination: 82.5332°
perigee height: 607 km
apogee height: 634 km
right ascension of ascending node: 94.6659°
argument of perigee: 201.5983°
revolutions per day: 14.82744466
mean anomaly at epoch: 226.8179°
orbit number at epoch: 53022

The dashed part of the orbit path shows where the satellite is in the earth's shadow,  

DLR